| time (UTC) | temp F | wind direction | speed MPH | gust MPH | rain 1hr in | rain 24hr in | rain mn in | humidity % | barometer mb |
| 20260504044338 | 60 | 295 | 1.0 | 6.0 | 0.00 | 0.00 | 0.00 | 82 | 1012.9 |
| 20260504043408 | 60 | 304 | 3.0 | 4.0 | 0.00 | 0.00 | 0.00 | 83 | 1012.9 |
| 20260504034408 | 61 | 317 | 0.0 | 8.0 | 0.00 | 0.00 | 0.00 | 85 | 1012.3 |
| 20260504033338 | 61 | 55 | 1.0 | 4.0 | 0.00 | 0.00 | 0.00 | 84 | 1012.4 |
| 20260504031338 | 61 | 313 | 1.0 | 6.0 | 0.00 | 0.00 | 0.00 | 82 | 1012.1 |
| 20260504030408 | 61 | 71 | 1.0 | 6.0 | 0.00 | 0.00 | 0.00 | 81 | 1012.0 |
| 20260504024408 | 62 | 344 | 3.0 | 7.0 | 0.00 | 0.00 | 0.00 | 80 | 1011.9 |
| 20260504023338 | 62 | 345 | 1.0 | 6.0 | 0.00 | 0.00 | 0.00 | 80 | 1011.9 |
| 20260504022408 | 62 | 302 | 2.0 | 5.0 | 0.00 | 0.00 | 0.00 | 80 | 1011.8 |
| 20260504021408 | 62 | 305 | 3.0 | 6.0 | 0.00 | 0.00 | 0.00 | 79 | 1011.4 |
| 20260504020408 | 62 | 265 | 2.0 | 9.0 | 0.00 | 0.00 | 0.00 | 80 | 1011.6 |
| 20260504015408 | 62 | 190 | 1.0 | 4.0 | 0.00 | 0.00 | 0.00 | 80 | 1011.6 |
| 20260504014408 | 62 | 249 | 1.0 | 6.0 | 0.00 | 0.00 | 0.00 | 80 | 1011.2 |
| 20260504013408 | 62 | 263 | 1.0 | 7.0 | 0.00 | 0.00 | 0.00 | 80 | 1011.4 |
| 20260504011408 | 63 | 199 | 1.0 | 7.0 | 0.00 | 0.00 | 0.00 | 80 | 1011.4 |
| 20260504010408 | 63 | 294 | 2.0 | 8.0 | 0.00 | 0.00 | 0.00 | 80 | 1011.4 |
| 20260504005408 | 63 | 286 | 1.0 | 7.0 | 0.00 | 0.00 | 0.00 | 80 | 1011.1 |
| 20260504004408 | 63 | 272 | 4.0 | 6.0 | 0.00 | 0.00 | 0.00 | 80 | 1011.0 |
| 20260504002407 | 63 | 229 | 2.0 | 7.0 | 0.00 | 0.00 | 0.00 | 79 | 1011.0 |
| 20260504001407 | 63 | 271 | 1.0 | 8.0 | 0.00 | 0.00 | 0.00 | 79 | 1011.1 |
| 20260504000409 | 63 | 334 | 3.0 | 10.0 | 0.00 | 0.00 | 0.00 | 80 | 1011.1 |
| 20260503235407 | 63 | 355 | 2.0 | 10.0 | 0.00 | 0.00 | 0.00 | 80 | 1011.0 |
| 20260503233408 | 63 | 257 | 3.0 | 7.0 | 0.00 | 0.00 | 0.00 | 81 | 1010.9 |
| 20260503232407 | 63 | 229 | 3.0 | 9.0 | 0.00 | 0.00 | 0.00 | 81 | 1011.3 |
| 20260503230407 | 64 | 336 | 3.0 | 12.0 | 0.00 | 0.00 | 0.00 | 80 | 1011.4 |
| 20260503225407 | 65 | 250 | 4.0 | 8.0 | 0.00 | 0.00 | 0.00 | 78 | 1011.6 |
| 20260503223407 | 65 | 294 | 3.0 | 8.0 | 0.00 | 0.00 | 0.00 | 77 | 1011.6 |
| 20260503222407 | 65 | 14 | 2.0 | 8.0 | 0.00 | 0.00 | 0.00 | 76 | 1011.6 |
| 20260503221407 | 65 | 146 | 0.0 | 8.0 | 0.00 | 0.00 | 0.00 | 75 | 1011.6 |
| 20260503220408 | 65 | 263 | 4.0 | 6.0 | 0.00 | 0.00 | 0.00 | 74 | 1011.7 |
| 20260503213407 | 64 | 237 | 7.0 | 10.0 | 0.00 | 0.00 | 0.00 | 74 | 1011.9 |
| 20260503212407 | 66 | 222 | 5.0 | 9.0 | 0.00 | 0.00 | 0.00 | 72 | 1011.9 |
| 20260503211408 | 66 | 331 | 2.0 | 7.0 | 0.00 | 0.00 | 0.00 | 71 | 1011.9 |
| 20260503210407 | 66 | 263 | 2.0 | 7.0 | 0.00 | 0.00 | 0.00 | 71 | 1012.1 |
| 20260503205407 | 66 | 275 | 3.0 | 9.0 | 0.00 | 0.00 | 0.00 | 72 | 1012.1 |
| 20260503204407 | 66 | 346 | 2.0 | 8.0 | 0.00 | 0.00 | 0.00 | 73 | 1012.0 |
| 20260503203407 | 66 | 296 | 3.0 | 7.0 | 0.00 | 0.00 | 0.00 | 73 | 1012.1 |
| 20260503202407 | 66 | 242 | 4.0 | 7.0 | 0.00 | 0.00 | 0.00 | 73 | 1012.1 |
| 20260503201407 | 65 | 251 | 2.0 | 8.0 | 0.00 | 0.00 | 0.00 | 72 | 1012.1 |
| 20260503200408 | 65 | 232 | 4.0 | 7.0 | 0.00 | 0.00 | 0.00 | 74 | 1012.1 |
| 20260503195407 | 64 | 254 | 3.0 | 7.0 | 0.00 | 0.00 | 0.00 | 74 | 1012.1 |
| 20260503194408 | 64 | 232 | 4.0 | 6.0 | 0.00 | 0.00 | 0.00 | 75 | 1012.3 |
| 20260503193408 | 65 | 280 | 3.0 | 7.0 | 0.00 | 0.00 | 0.00 | 74 | 1012.4 |
| 20260503191408 | 65 | 288 | 3.0 | 7.0 | 0.00 | 0.00 | 0.00 | 74 | 1012.7 |
| 20260503190407 | 65 | 224 | 2.0 | 7.0 | 0.00 | 0.00 | 0.00 | 74 | 1012.6 |
| 20260503185407 | 65 | 301 | 2.0 | 7.0 | 0.00 | 0.00 | 0.00 | 75 | 1012.6 |
| 20260503184406 | 65 | 294 | 2.0 | 7.0 | 0.00 | 0.00 | 0.00 | 75 | 1012.7 |
| 20260503183407 | 64 | 209 | 2.0 | 6.0 | 0.00 | 0.00 | 0.00 | 77 | 1012.7 |
| 20260503181407 | 63 | 238 | 3.0 | 6.0 | 0.00 | 0.00 | 0.00 | 79 | 1012.7 |
| 20260503175407 | 63 | 219 | 3.0 | 5.0 | 0.00 | 0.00 | 0.00 | 81 | 1012.6 |
| 20260503174407 | 62 | 250 | 3.0 | 5.0 | 0.00 | 0.00 | 0.00 | 81 | 1012.6 |
| 20260503173407 | 62 | 233 | 2.0 | 4.0 | 0.00 | 0.00 | 0.00 | 82 | 1012.9 |
| 20260503172406 | 62 | 232 | 2.0 | 7.0 | 0.00 | 0.00 | 0.00 | 82 | 1012.7 |
| 20260503170407 | 62 | 296 | 2.0 | 4.0 | 0.00 | 0.00 | 0.00 | 82 | 1012.5 |
| 20260503150407 | 61 | 277 | 1.0 | 3.0 | 0.00 | 0.00 | 0.00 | 86 | 1011.9 |
| 20260503130406 | 60 | 325 | 3.0 | 5.0 | 0.00 | 0.00 | 0.00 | 87 | 1010.8 |
| 20260503110406 | 61 | 238 | 1.0 | 2.0 | 0.00 | 0.00 | 0.00 | 87 | 1010.7 |
| 20260503090406 | 61 | 257 | 0.0 | 2.0 | 0.00 | 0.00 | 0.00 | 85 | 1010.9 |
| 20260503081405 | 61 | 288 | 0.0 | 3.0 | 0.00 | 0.00 | 0.00 | 86 | 1011.1 |
| 20260503080405 | 60 | 229 | 2.0 | 4.0 | 0.00 | 0.00 | 0.00 | 86 | 1011.0 |
| 20260503072405 | 60 | 172 | 1.0 | 3.0 | 0.00 | 0.00 | 0.00 | 88 | 1010.9 |
| 20260503070406 | 60 | 202 | 2.0 | 4.0 | 0.00 | 0.00 | 0.00 | 89 | 1010.8 |
| 20260503054405 | 60 | 272 | 2.0 | 3.0 | 0.00 | 0.00 | 0.00 | 92 | 1010.8 |
| 20260503053406 | 60 | 348 | 3.0 | 4.0 | 0.00 | 0.00 | 0.00 | 92 | 1010.9 |
| 20260503051405 | 60 | 261 | 1.0 | 4.0 | 0.00 | 0.00 | 0.00 | 92 | 1011.1 |
| 20260503050405 | 60 | 295 | 2.0 | 3.0 | 0.00 | 0.00 | 0.00 | 93 | 1011.0 |
| 20260503045405 | 60 | 243 | 2.0 | 5.0 | 0.00 | 0.00 | 0.00 | 93 | 1011.0 |